Погода в Таранто

Италия     40°27′41″N   17°15′21″E
темп.,
°C
ветер,
м/с
пор.,
м/с
влажн.,
%
обл.,
%
осадки,
мм/ч
давл.,
гПа
погр.,
м
28 сентября, вт
вт2823:00+22сз12705 0.3 1016117
02:00+22сз117035 0.3 101661
05:00+21с4783100 0.0 1016257
08:00+21с5876100 0.0 1016422
11:00+26с445565 0.0 1017914
14:00+28с444974 0.0 10151357
17:00+26с66505 0.0 1015851
20:00+23ссв48663 0.0 1016286
29 сентября, ср
ср2923:00+22ссз24710 0.0 1017190
02:00+21с23740 0.0 1017125
05:00+20с22685 0.0 101678
08:00+21ссв1162100 0.0 101799
11:00+24юз1149100 0.0 1017658
14:00+26ююз4245100 0.0 10161000
17:00+26ю4449100 0.0 1015617
20:00+23юв126045 0.0 1017118
30 сентября, чт
чт3023:00+22в226316 0.0 101758
02:00+21всв23667 0.0 101763
05:00+21св226958 0.1 101756
08:00+21всв226699 0.1 1018111
11:00+24ю115785 1.3 1018667
14:00+24юз2259100 1.8 1017749
17:00+24в235870 1.6 1017738
20:00+22ссв577098 2.8 1018309
1 октября, пт
пт123:00+21ссв577250 1.1 1019377
02:00+20ссв577565 2.7 1019334
05:00+19с488090 0.0 1018404
08:00+19ссз587591 0.3 1019671
11:00+22ссз666070 0.0 10191278
14:00+23сз555580 0.4 10181433
17:00+21сз786210 1.3 10181067
20:00+19ссз697996 1.6 1018725
2 октября, сб
сб223:00+19ссз4685100 2.4 1018482
02:00+19ссз568228 5.7 1017436
05:00+18св588393 1.4 1016590
08:00+19св587742 2.2 1017664
11:00+22св556169 0.3 10171318
14:00+22ссв445587 0.8 10171331
17:00+22св445732 0.3 10171172
20:00+19ссв34715 0.3 1018271